Temp
96 97 96 96 96 95 93 91 89 88 88 87 87 77 81 82 87 92 91 90 90 90 87 92 90 90 88 88 87 89 76 86 90 83 81 83 92 93 94 95 95 95 94
95 94 95 96 95 94 92 90 88 86 87 89 88 90 87 87 91 92 91 90 90 90 88 87 90 89 92 86 86 85 87 87 91 78 79 78 86 92 94 94 94 92 96
94 95 94 95 96 93 91 90 88 86 85 89 83 82 85 86 83 89 90 91 90 90 88 88 89 88 89 92 88 88 85 85 89 87 86 79 82 88 94 92 93 92 93
94 97 98 96 96 94 94 91 88 87 88 85 84 81 81 86 89 89 92 92 90 90 90 89 89 88 92 88 90 92 88 85 80 90 90 89 87 82 81 91 93 92 90
95 95 98 99 97 94 94 92 88 87 87 86 86 79 82 87 88 91 89 87 89 89 91 90 89 89 91 89 87 87 86 89 87 90 90 87 89 88 85 84 84 91 93
95 96 98 99 96 93 86 89 88 85 86 86 86 84 81 86 88 87 83 88 87 87 87 90 89 89 89 88 90 88 87 86 86 86 79 84 86 84 87 86 86 87 89
92 94 94 94 92 92 90 91 87 83 85 86 87 85 84 83 83 85 88 88 83 86 91 89 89 90 87 88 89 87 87 86 83 84 87 91 90 92 90 86 86 85 91
88 91 94 92 91 89 90 90 80 85 86 87 86 84 85 83 87 87 92 92 91 92 92 90 90 89 89 88 87 85 90 88 88 86 85 91 93 93 91 88 84 81 89
86 89 92 93 91 89 84 88 83 85 87 88 86 86 85 85 89 88 88 91 91 93 90 89 89 89 89 88 88 84 87 88 87 87 87 88 88 87 91 91 90 84 82
87 89 91 92 93 93 89 87 86 87 87 89 88 88 85 85 87 87 86 88 90 90 89 89 88 89 88 88 86 89 89 87 90 92 87 85 86 82 79 87 90 90 86
89 90 91 92 92 94 89 88 86 85 87 89 88 88 88 89 88 88 87 87 88 88 88 87 87 88 89 88 85 86 87 86 86 88 87 86 86 85 87 87 91 90 90
90 88 91 92 92 91 89 85 85 83 89 89 88 88 88 88 88 88 88 88 87 88 88 88 88 88 88 88 86 87 90 87 87 87 86 85 89 82 83 83 83 82 86
89 89 89 89 90 90 88 87 86 87 90 89 90 89 88 88 88 88 88 88 87 87 88 87 87 87 87 88 88 87 88 88 89 88 87 87 88 86 89 86 86 87 86
88 89 88 88 88 89 87 86 86 88 87 88 89 87 87 87 87 88 86 87 87 85 86 86 87 87 88 88 89 89 87 87 89 89 89 88 87 86 86 85 84 83 85
87 88 90 88 87 87 87 88 88 86 87 86 85 86 86 87 86 86 84 87 87 87 86 86 87 88 88 91 88 88 87 86 86 88 89 89 86 79 80 85 86 84 81
84 85 87 88 88 87 87 87 87 87 87 85 85 85 85 84 84 85 85 85 85 85 85 85 86 86 90 78 73 79 88 87 86 86 88 89 82 80 73 72 72 77 81
81 83 84 85 87 88 88 87 87 87 85 85 85 85 84 83 83 84 84 84 84 85 85 85 86 85 87 71 70 70 83 86 87 85 86 88 92 83 88 75 69 69 69
81 81 84 86 88 90 91 89 89 86 85 84 85 86 85 84 84 83 83 83 84 83 84 85 85 85 87 64 65 68 81 84 85 85 86 85 85 85 82 83 84 85 86
83 84 86 86 85 85 88 88 87 87 86 85 85 86 85 85 84 83 83 84 84 84 84 85 85 85 79 60 61 67 85 85 84 84 84 84 83 74 66 78 78 81 84
84 84 85 87 89 88 89 87 86 85 85 86 86 87 86 85 84 84 84 85 85 85 89 87 86 75 74 58 58 66 85 82 84 83 82 70 73 60 58 71 74 74 79
83 84 85 85 86 86 85 83 87 87 88 89 88 86 86 85 86 85 85 85 85 87 84 83 80 81 77 69 56 57 79 81 81 82 83 84 60 58 56 56 65 68 71
82 83 83 83 86 86 84 82 82 86 86 86 87 86 85 87 87 84 84 84 83 81 77 75 76 78 75 63 57 55 57 62 75 77 81 78 56 54 54 58 62 60 60
81 83 81 81 83 85 83 80 81 82 82 84 84 85 85 85 86 83 83 83 78 77 75 75 77 77 78 75 56 56 58 58 69 76 67 58 55 54 58 57 57 57 65
78 81 80 80 80 82 83 82 82 81 81 81 83 85 79 79 84 87 85 78 77 78 78 78 79 81 81 81 81 79 79 62 70 69 74 67 60 56 61 64 71 73 71
78 78 77 77 78 81 80 82 82 81 79 80 80 72 70 71 68 70 77 80 81 77 80 78 82 81 80 78 63 65 78 75 63 61 75 72 72 69 65 66 67 69 70
76 75 75 76 78 80 80 80 81 80 76 74 77 79 77 73 70 68 65 55 54 51 51 52 65 69 59 50 48 47 45 45 47 69 73 68 65 63 62 61 61 63 62
MSLP
1007.26 1008.18 1009.04 1009.63 1010.33 1010.97 1011.75 1012.54 1013.22 1013.94 1014.63 1015.23 1015.15 1016.18 1016.22 1016.62 1016.60 1016.02 1016.33 1016.59 1016.74 1017.05 1017.28 1016.80 1017.18 1017.38 1017.46 1017.50 1017.68 1017.60 1018.27 1017.77 1017.50 1017.55 1017.79 1017.92 1017.12 1016.96 1016.86 1016.96 1017.15 1017.20 1017.80
1006.44 1007.52 1008.31 1008.95 1009.62 1010.38 1011.23 1012.11 1012.72 1013.67 1014.25 1014.40 1014.82 1015.01 1015.52 1015.93 1015.58 1015.79 1016.10 1016.53 1016.52 1016.74 1017.02 1017.04 1016.84 1017.07 1016.97 1017.57 1017.65 1017.70 1017.45 1017.36 1017.28 1017.63 1017.56 1017.05 1016.77 1016.39 1016.54 1016.67 1016.80 1017.03 1017.05
1005.73 1006.51 1007.48 1008.17 1008.82 1009.70 1010.80 1011.62 1012.51 1013.07 1013.95 1014.03 1014.93 1015.27 1015.56 1015.63 1015.83 1015.69 1015.91 1016.11 1016.41 1016.55 1016.89 1016.93 1016.92 1017.05 1017.13 1016.61 1017.30 1017.37 1017.47 1017.07 1016.95 1017.28 1016.76 1016.34 1015.54 1015.74 1015.58 1016.21 1016.44 1016.61 1016.80
1005.38 1005.52 1006.20 1007.39 1008.21 1009.17 1010.28 1011.17 1012.19 1012.79 1013.19 1013.89 1014.45 1014.97 1014.86 1014.60 1014.76 1015.20 1015.32 1015.42 1016.03 1016.23 1016.43 1016.69 1016.83 1016.87 1016.41 1016.88 1016.92 1016.94 1017.18 1017.38 1017.20 1016.76 1016.89 1016.81 1016.59 1016.03 1015.24 1015.58 1015.82 1016.35 1016.58
1004.62 1005.18 1005.50 1006.20 1007.52 1009.00 1009.63 1010.42 1011.47 1012.28 1012.66 1013.08 1013.55 1014.56 1014.72 1014.52 1014.88 1014.62 1014.87 1015.56 1015.65 1016.09 1016.12 1016.33 1016.51 1016.65 1016.67 1016.84 1017.08 1017.10 1017.27 1016.94 1016.93 1016.32 1016.57 1016.84 1016.49 1016.56 1016.13 1015.05 1015.23 1015.68 1015.98
1004.09 1004.84 1005.38 1006.04 1007.23 1008.68 1009.68 1010.26 1011.00 1011.57 1012.05 1012.79 1013.28 1013.91 1014.35 1014.06 1014.08 1014.57 1015.09 1015.25 1015.80 1016.05 1016.06 1016.03 1016.24 1016.38 1016.47 1016.78 1016.71 1016.90 1017.01 1017.04 1017.08 1016.81 1017.39 1016.84 1016.11 1016.14 1015.79 1015.45 1015.39 1015.22 1015.60
1003.95 1004.57 1005.11 1006.00 1007.11 1008.06 1009.37 1010.05 1010.92 1011.68 1012.09 1012.24 1012.72 1013.21 1013.89 1014.29 1014.23 1014.47 1014.51 1014.59 1015.46 1015.71 1015.23 1015.87 1016.05 1016.13 1016.65 1016.65 1016.46 1016.81 1016.79 1016.79 1017.00 1016.92 1016.53 1016.16 1016.02 1015.86 1015.97 1015.98 1015.46 1015.32 1015.11
1004.32 1004.21 1004.74 1006.04 1007.00 1007.91 1008.72 1009.35 1010.49 1010.74 1011.52 1011.79 1012.16 1012.80 1013.58 1013.91 1013.96 1014.25 1013.64 1013.85 1014.06 1014.32 1014.71 1015.36 1015.53 1015.83 1016.09 1016.25 1016.36 1016.74 1016.37 1016.40 1016.55 1016.59 1016.64 1015.86 1015.65 1015.77 1015.88 1015.77 1015.57 1015.03 1014.38
1004.68 1004.88 1004.99 1005.56 1006.55 1007.49 1008.36 1009.19 1010.10 1010.35 1010.86 1011.22 1011.82 1012.19 1012.88 1013.42 1013.34 1013.69 1014.13 1013.84 1013.85 1013.93 1014.72 1015.10 1015.34 1015.45 1015.65 1015.82 1016.04 1016.21 1016.15 1016.16 1016.35 1016.18 1016.34 1016.33 1015.99 1016.16 1015.86 1015.83 1015.62 1015.53 1014.59
1004.55 1004.84 1005.27 1005.84 1006.47 1007.03 1008.08 1009.03 1009.50 1009.91 1010.27 1010.60 1011.27 1011.71 1012.47 1013.15 1013.45 1013.72 1013.97 1013.75 1013.77 1014.20 1014.48 1014.78 1015.18 1015.36 1015.45 1015.51 1015.71 1015.67 1015.67 1015.89 1015.81 1015.55 1016.01 1016.27 1016.30 1016.41 1016.32 1015.97 1015.54 1015.25 1015.16
1004.26 1004.71 1005.16 1005.89 1006.47 1006.89 1008.10 1008.74 1009.30 1009.71 1010.03 1010.27 1010.65 1011.26 1011.81 1012.33 1012.91 1013.13 1013.51 1013.81 1013.96 1014.05 1014.27 1014.65 1014.92 1014.89 1015.05 1015.24 1015.40 1015.42 1015.41 1015.50 1015.70 1015.62 1015.73 1015.80 1016.02 1015.98 1015.84 1015.61 1015.00 1014.86 1014.87
1004.36 1004.98 1005.22 1005.63 1006.17 1006.67 1007.63 1008.67 1009.30 1009.66 1009.70 1009.92 1010.48 1010.93 1011.45 1011.85 1012.18 1012.57 1012.92 1013.32 1013.63 1013.88 1014.10 1014.29 1014.47 1014.57 1014.78 1014.96 1015.16 1015.06 1014.79 1015.14 1015.16 1015.23 1015.40 1015.55 1015.52 1015.85 1015.77 1015.67 1015.24 1015.14 1014.92
1004.68 1004.94 1005.35 1005.75 1006.14 1006.65 1007.23 1007.98 1008.79 1009.14 1009.40 1009.62 1010.04 1010.50 1010.97 1011.35 1011.66 1012.03 1012.54 1012.92 1013.32 1013.59 1013.77 1013.97 1014.14 1014.27 1014.54 1014.65 1014.75 1014.82 1014.67 1014.70 1014.65 1014.70 1014.79 1014.78 1014.77 1014.77 1014.65 1014.91 1014.95 1014.72 1014.64
1004.98 1005.15 1005.44 1005.79 1006.20 1006.39 1006.97 1007.67 1008.24 1008.52 1008.92 1009.27 1009.53 1009.81 1010.40 1010.83 1011.24 1011.58 1012.23 1012.66 1012.98 1013.29 1013.51 1013.74 1013.91 1014.06 1014.14 1014.25 1014.30 1014.27 1014.38 1014.33 1014.14 1014.21 1014.23 1014.28 1014.33 1014.33 1014.38 1014.48 1014.60 1014.60 1014.41
1005.38 1005.52 1005.37 1005.68 1006.07 1006.39 1006.85 1007.45 1007.89 1008.61 1009.08 1009.24 1009.39 1009.55 1009.98 1010.44 1010.90 1011.27 1011.95 1012.11 1012.56 1012.86 1013.14 1013.40 1013.57 1013.66 1013.69 1013.65 1013.77 1013.81 1013.75 1013.84 1013.77 1013.67 1013.66 1013.60 1013.66 1013.82 1013.93 1014.11 1013.67 1013.89 1014.08
1006.23 1006.18 1005.94 1005.75 1005.92 1006.19 1006.48 1006.95 1007.45 1007.97 1008.56 1008.89 1009.12 1009.37 1009.66 1010.19 1010.51 1010.85 1011.31 1011.70 1012.08 1012.40 1012.60 1012.81 1013.00 1013.19 1013.21 1013.14 1013.58 1013.89 1013.52 1013.48 1013.40 1013.20 1013.07 1013.04 1013.12 1013.31 1013.50 1013.51 1013.60 1013.66 1013.59
1006.92 1006.66 1006.47 1006.38 1006.16 1006.13 1006.36 1006.57 1007.03 1007.46 1007.93 1008.42 1008.64 1009.05 1009.44 1009.77 1010.31 1010.65 1010.97 1011.28 1011.63 1011.94 1012.26 1012.55 1012.77 1012.92 1013.06 1013.25 1013.58 1013.96 1013.98 1013.40 1013.00 1013.01 1012.93 1012.82 1012.54 1012.73 1012.71 1012.71 1012.83 1012.85 1012.76
1007.54 1007.31 1006.91 1006.63 1006.44 1006.23 1006.04 1006.37 1006.66 1006.98 1007.40 1007.88 1008.11 1008.56 1009.13 1009.40 1009.75 1010.15 1010.35 1010.63 1011.00 1011.35 1011.70 1011.98 1012.24 1012.48 1012.73 1013.73 1013.94 1014.05 1013.82 1013.38 1013.13 1012.90 1012.71 1012.61 1012.53 1012.58 1012.68 1012.54 1012.10 1011.72 1011.50
1007.87 1007.73 1007.37 1007.05 1006.93 1006.78 1006.46 1006.35 1006.48 1006.70 1006.73 1006.96 1007.59 1007.88 1008.34 1008.88 1009.37 1009.80 1010.01 1010.29 1010.62 1010.88 1011.11 1011.38 1011.58 1011.91 1012.92 1013.78 1013.96 1013.79 1012.91 1012.63 1012.76 1012.77 1012.78 1012.82 1012.67 1012.62 1012.98 1012.80 1012.15 1011.46 1010.85
1008.34 1007.96 1007.64 1007.30 1006.81 1006.74 1006.59 1006.40 1006.33 1006.49 1006.49 1006.35 1006.62 1007.25 1007.66 1008.10 1008.43 1009.04 1009.50 1009.74 1009.98 1010.22 1010.61 1010.99 1011.16 1011.73 1012.71 1013.45 1013.72 1013.62 1012.94 1012.55 1012.34 1012.53 1012.48 1012.66 1013.07 1013.58 1013.83 1013.73 1012.98 1012.17 1011.28
1008.65 1008.35 1007.83 1007.34 1007.12 1007.10 1007.09 1006.76 1006.25 1006.07 1006.28 1006.41 1006.46 1006.60 1007.03 1007.63 1007.93 1008.28 1008.76 1009.26 1009.58 1009.61 1010.16 1010.82 1011.97 1012.15 1012.85 1014.17 1014.49 1014.19 1013.34 1012.89 1012.58 1012.34 1012.17 1012.24 1012.86 1013.41 1013.54 1013.48 1013.17 1012.33 1011.68
1008.87 1008.54 1008.14 1007.72 1007.33 1007.20 1007.18 1006.92 1006.66 1006.54 1006.47 1006.53 1006.33 1006.30 1006.45 1006.77 1007.24 1007.95 1008.47 1008.77 1009.29 1009.86 1010.46 1011.07 1011.93 1012.68 1013.17 1013.68 1014.71 1014.76 1014.45 1014.09 1013.22 1012.70 1012.32 1012.44 1013.13 1013.39 1013.37 1013.27 1012.51 1012.17 1011.95
1009.02 1008.75 1008.46 1007.99 1007.59 1007.26 1007.31 1007.16 1006.94 1006.85 1006.77 1006.52 1006.39 1006.39 1006.39 1006.27 1006.27 1006.90 1007.58 1008.25 1008.93 1009.60 1010.14 1010.65 1010.87 1011.70 1012.59 1013.47 1014.05 1014.43 1014.52 1014.12 1013.81 1013.21 1013.30 1013.39 1013.01 1012.67 1012.39 1011.76 1011.80 1011.94 1011.30
1009.10 1008.86 1008.57 1008.17 1007.65 1007.36 1007.31 1007.30 1007.11 1007.03 1006.71 1006.41 1006.14 1006.02 1006.44 1006.28 1006.37 1006.47 1006.68 1007.43 1007.88 1008.26 1008.99 1009.66 1009.88 1010.08 1010.86 1011.60 1012.54 1013.35 1013.38 1013.73 1013.22 1012.95 1012.70 1012.95 1012.79 1012.30 1011.94 1011.56 1010.65 1010.47 1010.10
1008.75 1008.74 1008.54 1008.19 1007.66 1007.35 1007.08 1007.02 1006.91 1006.89 1006.73 1006.40 1006.17 1006.89 1007.22 1007.39 1007.32 1007.60 1007.96 1007.48 1007.43 1007.64 1007.92 1008.72 1009.15 1009.54 1009.96 1010.66 1011.80 1013.09 1013.23 1013.56 1013.56 1013.77 1012.49 1012.41 1012.29 1012.13 1012.10 1011.63 1011.06 1010.59 1009.68
1008.22 1008.23 1008.14 1007.90 1007.44 1007.08 1006.77 1006.51 1006.58 1006.58 1006.80 1006.82 1006.48 1006.48 1006.95 1007.64 1008.14 1008.18 1009.11 1009.63 1009.69 1009.55 1009.17 1009.51 1009.84 1010.63 1010.35 1011.22 1011.02 1012.79 1013.93 1014.26 1013.73 1013.32 1012.51 1012.44 1012.77 1012.59 1012.30 1011.62 1011.23 1010.81 1010.47
Wind_Speed
18 17 17 16 15 15 15 15 14 13 10 9 9 5 8 6 7 7 7 7 7 7 5 5 3 3 4 3 3 3 2 5 4 3 3 2 7 9 8 7 7 8 8
15 16 16 17 17 16 16 15 16 15 13 9 8 7 8 8 9 7 8 8 7 6 6 5 4 2 2 3 4 3 3 5 3 2 3 4 5 7 9 8 8 8 8
16 17 17 17 17 16 16 15 15 14 12 12 7 3 5 6 5 7 8 8 8 8 7 6 6 3 5 3 2 3 4 4 3 5 4 3 2 1 8 9 8 9 8
16 17 19 17 17 15 14 14 15 14 13 14 10 12 8 9 8 8 9 8 9 9 8 8 6 6 5 3 3 4 6 2 4 3 4 5 6 3 3 5 7 8 9
18 17 18 17 13 11 14 15 15 14 14 14 14 9 9 7 5 7 10 9 7 7 9 8 7 6 7 3 4 4 4 5 6 3 2 3 5 5 6 4 5 5 8
16 15 15 12 11 14 8 13 15 16 16 15 14 12 12 9 8 9 7 7 5 6 9 9 7 6 5 6 6 5 5 5 4 6 1 7 1 4 5 6 6 4 4
15 15 13 14 14 16 16 14 13 13 15 15 14 14 13 12 9 9 9 9 6 7 9 8 7 6 7 7 7 5 6 5 4 5 6 6 4 3 3 4 6 4 3
9 15 17 15 15 14 17 17 13 15 16 15 15 12 12 7 8 10 10 9 10 9 6 7 7 7 7 7 6 5 6 5 5 7 6 6 5 4 4 5 3 8 5
9 13 15 17 17 16 12 17 14 15 15 15 13 12 11 11 9 8 10 8 6 5 6 7 8 8 7 8 7 5 8 5 5 5 5 6 5 5 6 5 5 5 8
10 12 12 13 13 15 15 14 16 16 15 15 13 12 12 12 10 10 11 11 9 8 6 9 8 8 7 8 8 6 7 6 6 6 5 5 5 5 3 8 7 6 6
6 9 12 12 13 12 11 12 12 12 13 13 12 12 12 13 13 12 11 11 10 10 9 7 7 8 8 6 6 5 3 4 5 5 5 7 5 6 6 7 7 7 7
4 5 9 12 13 13 14 11 10 10 11 11 11 12 12 12 13 12 12 13 12 11 9 9 8 7 7 6 6 6 4 5 7 7 6 8 7 8 8 7 8 6 8
4 6 6 7 9 12 12 13 12 12 10 10 12 12 12 13 13 13 13 12 11 11 10 10 10 9 8 7 7 7 8 8 8 8 9 9 9 9 8 6 8 9 10
5 4 5 7 8 9 12 12 12 11 11 12 13 12 12 13 12 13 12 12 12 11 11 10 9 10 9 9 9 9 10 10 10 10 10 10 10 11 10 9 10 9 9
7 7 3 7 8 9 8 10 10 11 10 10 11 12 12 12 11 12 12 12 12 12 11 11 11 11 10 10 11 12 11 11 11 11 11 12 12 9 9 8 10 8 9
8 7 6 3 7 9 10 10 10 10 11 12 12 11 11 11 11 10 11 11 11 12 13 13 13 12 10 8 8 9 9 11 11 11 11 12 10 12 13 14 14 13 11
9 9 7 5 5 7 9 11 12 11 12 12 12 11 11 11 11 12 12 12 12 12 13 12 11 11 11 3 6 5 10 11 11 11 11 11 10 10 12 12 15 14 15
9 9 9 8 6 6 7 9 11 13 13 12 12 11 11 11 12 13 13 13 12 12 12 11 11 11 6 4 3 2 8 10 11 11 11 12 12 11 8 12 14 14 14
9 8 8 9 8 7 6 6 9 11 13 13 13 12 13 12 11 12 12 11 11 11 12 11 11 10 5 5 2 4 6 7 8 9 10 12 13 10 7 11 14 16 15
9 11 11 9 8 8 7 7 8 10 13 13 14 13 13 14 14 14 13 12 11 11 9 10 9 3 7 6 2 3 6 6 7 8 10 10 12 12 11 11 13 15 15
10 10 11 10 9 7 7 8 8 8 10 11 12 13 14 13 13 13 12 12 11 9 9 7 4 5 4 4 2 3 4 5 6 8 9 8 7 5 8 6 10 12 11
9 11 10 11 11 9 8 8 7 7 6 9 11 13 14 13 12 13 11 11 10 9 8 8 6 4 4 6 4 4 5 5 6 8 9 9 11 10 11 12 15 10 9
9 9 10 12 11 10 8 10 9 7 8 9 10 12 13 14 12 15 14 12 10 10 9 9 9 7 7 5 8 7 6 5 6 6 10 13 14 17 14 21 19 14 7
11 11 11 12 13 12 10 10 8 8 8 9 11 10 8 10 14 13 13 12 13 13 11 11 10 9 9 7 6 5 5 10 7 2 5 8 12 14 14 10 9 8 7
11 11 12 12 14 13 14 11 9 9 7 8 3 3 3 1 2 2 6 9 11 8 13 11 10 10 10 9 10 3 3 5 7 7 5 7 8 8 7 8 8 9 7
13 12 13 14 15 14 14 14 10 9 6 6 6 6 7 7 5 6 4 8 4 1 6 7 2 4 13 14 16 7 3 7 5 6 4 5 6 7 7 6 6 5 7
Wind_Direction
194 194 198 196 202 203 200 200 199 193 197 193 195 180 209 200 193 215 214 213 232 205 218 253 201 231 248 271 256 233 207 276 245 299 219 219 240 207 213 211 219 214 214
200 190 198 200 203 202 206 205 208 193 201 190 207 205 196 213 200 201 191 221 212 208 211 243 231 222 236 236 244 237 248 247 227 236 238 206 209 214 219 218 223 219 219
204 197 197 208 204 201 201 202 209 201 197 217 180 192 191 205 186 209 202 207 216 220 226 225 250 229 265 248 238 240 265 305 251 270 278 284 324 183 182 213 226 217 222
215 215 201 202 210 202 198 201 204 201 197 200 191 188 211 202 195 195 206 205 208 217 218 210 221 230 258 324 240 228 298 287 293 187 232 295 344 297 204 201 207 205 224
216 210 218 197 201 208 196 193 193 194 198 192 199 188 200 201 213 213 193 215 191 227 204 200 211 227 234 222 277 272 255 265 279 275 223 235 242 223 285 282 172 201 219
211 212 210 191 187 184 195 195 189 192 191 199 193 191 203 221 193 204 173 200 193 216 215 204 219 231 252 241 235 258 259 276 298 318 136 272 272 270 239 248 263 282 229
196 198 190 188 185 182 189 197 188 195 198 192 197 198 209 208 196 201 210 185 182 223 193 209 216 230 209 242 249 246 240 240 250 250 247 237 267 297 269 301 286 252 233
197 202 183 185 186 189 186 191 177 191 198 198 198 199 204 199 205 201 208 201 194 201 171 195 230 235 251 234 231 241 255 226 240 242 239 268 237 249 257 273 305 294 214
193 201 191 187 180 189 188 189 192 190 194 197 201 196 197 217 207 197 211 211 206 204 200 212 219 222 231 239 239 224 228 236 234 234 243 256 324 320 306 256 262 289 296
176 197 198 200 191 189 191 189 195 195 194 196 197 195 199 197 207 200 208 214 204 215 208 214 212 220 225 244 235 225 192 224 239 231 204 235 204 234 225 274 247 252 260
154 185 192 191 193 199 171 193 194 198 198 201 192 196 203 199 200 206 204 216 219 217 220 222 226 228 227 231 229 242 246 243 239 265 242 246 245 257 218 261 250 244 243
83 173 193 192 201 197 171 186 189 197 203 198 197 197 198 205 203 210 205 207 217 220 224 225 232 230 228 224 231 243 277 229 238 240 252 246 247 237 249 234 268 287 292
93 142 172 195 205 195 205 191 189 193 196 195 196 198 202 201 209 208 213 210 212 222 221 221 226 227 230 223 226 237 243 249 253 259 255 260 253 250 262 251 243 240 231
64 92 167 189 210 208 197 198 194 184 188 193 200 193 203 208 213 211 208 209 213 218 222 225 229 231 233 236 246 241 241 250 255 253 250 249 248 249 253 249 249 260 268
17 7 264 189 199 201 209 212 204 203 204 205 206 201 201 206 209 205 208 207 212 215 220 224 230 234 237 240 232 241 244 247 251 249 247 244 247 255 258 261 248 253 243
13 5 345 274 211 204 198 201 206 205 203 206 210 203 197 203 209 206 203 204 210 215 218 226 232 240 247 236 218 260 261 254 255 259 255 255 237 233 231 234 243 258 256
5 356 346 326 305 216 209 203 201 196 196 207 204 199 197 194 199 197 198 203 209 215 220 227 233 239 242 181 192 194 257 268 262 262 268 272 270 257 259 233 233 242 233
6 352 342 330 321 307 231 211 200 195 192 201 199 192 197 198 194 197 198 198 203 209 213 219 222 230 231 57 38 287 255 258 268 272 272 271 272 269 281 275 269 254 242
1 347 338 338 323 310 308 255 222 212 197 193 199 193 193 196 195 202 200 199 202 204 208 214 216 224 146 87 69 274 255 267 284 288 290 290 284 296 25 286 267 266 263
354 349 339 323 329 335 304 279 245 229 227 203 191 197 195 195 189 195 201 201 201 204 214 214 217 202 155 145 97 325 279 274 283 288 267 233 253 15 7 319 287 277 274
348 339 332 329 335 325 322 290 281 256 246 230 206 194 196 202 198 192 194 197 203 207 203 201 195 200 166 119 9 341 268 303 308 303 300 299 62 339 301 270 267 268 309
338 340 332 326 326 325 312 297 295 304 297 259 227 205 196 198 190 194 193 194 193 194 173 158 174 156 153 101 190 267 336 9 308 303 301 308 7 320 291 285 274 255 257
320 323 324 320 311 317 320 308 316 299 293 270 242 229 211 200 190 185 185 188 171 177 173 176 173 170 183 170 155 200 233 249 288 314 333 302 293 282 275 251 262 263 250
296 305 304 301 303 304 309 313 315 304 287 271 254 225 215 204 200 197 179 170 177 178 174 178 178 172 169 171 181 192 219 206 252 8 304 312 287 275 271 285 284 257 255
287 281 280 282 281 289 296 296 310 307 300 286 261 82 86 39 138 108 227 196 194 180 171 172 178 175 171 144 102 47 356 356 42 321 330 340 332 328 335 332 332 326 324
288 286 280 276 275 277 279 289 287 289 291 266 233 199 185 184 199 167 172 21 14 35 21 342 314 65 107 126 127 125 267 278 286 244 1 358 340 325 318 329 329 334 339